| time (UTC) | temp C | wind direction | speed KPH | gust KPH | rain 1hr cm | rain 24hr cm | rain mn cm | humidity % | barometer mb |
| 20260506051040 | 20 | 93 | 3.2 | 12.9 | 0.00 | 0.00 | 0.00 | 76 | 1015.6 |
| 20260506050540 | 20 | 65 | 1.6 | 8.0 | 0.00 | 0.00 | 0.00 | 76 | 1015.7 |
| 20260506045042 | 20 | 59 | 1.6 | 8.0 | 0.00 | 0.00 | 0.00 | 76 | 1015.9 |
| 20260506044539 | 20 | 105 | 1.6 | 8.0 | 0.00 | 0.00 | 0.00 | 76 | 1016.0 |
| 20260506044038 | 20 | 98 | 3.2 | 12.9 | 0.00 | 0.00 | 0.00 | 75 | 1016.0 |
| 20260506043538 | 21 | 80 | 4.8 | 12.9 | 0.00 | 0.00 | 0.00 | 75 | 1016.0 |
| 20260506043037 | 21 | 82 | 1.6 | 8.0 | 0.00 | 0.00 | 0.00 | 74 | 1016.0 |
| 20260506042537 | 21 | 84 | 3.2 | 8.0 | 0.00 | 0.00 | 0.00 | 74 | 1016.1 |
| 20260506042037 | 21 | 133 | 3.2 | 9.7 | 0.00 | 0.00 | 0.00 | 75 | 1016.1 |
| 20260506041536 | 21 | 113 | 1.6 | 11.3 | 0.00 | 0.00 | 0.00 | 74 | 1016.1 |
| 20260506041034 | 21 | 96 | 3.2 | 11.3 | 0.00 | 0.00 | 0.00 | 74 | 1016.1 |
| 20260506040538 | 21 | 96 | 3.2 | 11.3 | 0.00 | 0.00 | 0.00 | 74 | 1016.2 |
| 20260506040034 | 21 | 106 | 3.2 | 11.3 | 0.00 | 0.00 | 0.00 | 74 | 1016.2 |
| 20260506035533 | 21 | 97 | 4.8 | 11.3 | 0.00 | 0.00 | 0.00 | 74 | 1016.3 |
| 20260506035033 | 21 | 75 | 3.2 | 9.7 | 0.00 | 0.00 | 0.00 | 73 | 1016.4 |
| 20260506034533 | 21 | 77 | 1.6 | 11.3 | 0.00 | 0.00 | 0.00 | 73 | 1016.4 |
| 20260506034132 | 21 | 75 | 3.2 | 11.3 | 0.00 | 0.00 | 0.00 | 73 | 1016.5 |
| 20260506033530 | 21 | 91 | 3.2 | 11.3 | 0.00 | 0.00 | 0.00 | 73 | 1016.6 |
| 20260506033034 | 21 | 105 | 4.8 | 11.3 | 0.00 | 0.00 | 0.00 | 72 | 1016.7 |
| 20260506032529 | 21 | 67 | 3.2 | 9.7 | 0.00 | 0.00 | 0.00 | 73 | 1016.7 |
| 20260506032030 | 21 | 74 | 3.2 | 9.7 | 0.00 | 0.00 | 0.00 | 73 | 1016.8 |
| 20260506031528 | 21 | 170 | 3.2 | 9.7 | 0.00 | 0.00 | 0.00 | 72 | 1016.8 |
| 20260506031025 | 21 | 113 | 3.2 | 11.3 | 0.00 | 0.00 | 0.00 | 73 | 1016.8 |
| 20260506030529 | 21 | 83 | 3.2 | 11.3 | 0.00 | 0.00 | 0.00 | 74 | 1016.9 |
| 20260506030024 | 20 | 123 | 1.6 | 11.3 | 0.00 | 0.00 | 0.00 | 76 | 1017.0 |
| 20260506025526 | 20 | 88 | 4.8 | 11.3 | 0.00 | 0.00 | 0.00 | 75 | 1017.1 |
| 20260506025022 | 20 | 118 | 3.2 | 9.7 | 0.00 | 0.00 | 0.00 | 76 | 1017.1 |
| 20260506024523 | 20 | 123 | 3.2 | 11.3 | 0.00 | 0.00 | 0.00 | 76 | 1017.1 |
| 20260506024024 | 20 | 111 | 3.2 | 6.4 | 0.00 | 0.00 | 0.00 | 74 | 1017.2 |
| 20260506023522 | 20 | 119 | 3.2 | 8.0 | 0.00 | 0.00 | 0.00 | 73 | 1017.3 |
| 20260506023022 | 21 | 78 | 1.6 | 12.9 | 0.00 | 0.00 | 0.00 | 72 | 1017.4 |
| 20260506022520 | 21 | 92 | 3.2 | 12.9 | 0.00 | 0.00 | 0.00 | 71 | 1017.5 |
| 20260506022022 | 21 | 69 | 1.6 | 6.4 | 0.00 | 0.00 | 0.00 | 71 | 1017.5 |
| 20260506021519 | 21 | 210 | 1.6 | 6.4 | 0.00 | 0.00 | 0.00 | 71 | 1017.6 |
| 20260506021017 | 21 | 148 | 1.6 | 12.9 | 0.00 | 0.00 | 0.00 | 72 | 1017.7 |
| 20260506020516 | 20 | 83 | 4.8 | 12.9 | 0.00 | 0.00 | 0.00 | 72 | 1017.7 |
| 20260506020030 | 20 | 76 | 1.6 | 9.7 | 0.00 | 0.00 | 0.00 | 73 | 1017.9 |
| 20260506015515 | 20 | 68 | 1.6 | 11.3 | 0.00 | 0.00 | 0.00 | 71 | 1018.0 |
| 20260506015018 | 20 | 84 | 0.0 | 4.8 | 0.00 | 0.00 | 0.00 | 70 | 1018.1 |
| 20260506014514 | 21 | 76 | 1.6 | 9.7 | 0.00 | 0.00 | 0.00 | 69 | 1018.2 |
| 20260506014012 | 21 | 88 | 1.6 | 6.4 | 0.00 | 0.00 | 0.00 | 68 | 1018.3 |
| 20260506013514 | 21 | 111 | 0.0 | 6.4 | 0.00 | 0.00 | 0.00 | 68 | 1018.4 |
| 20260506013010 | 21 | 121 | 1.6 | 6.4 | 0.00 | 0.00 | 0.00 | 68 | 1018.4 |
| 20260506012511 | 21 | 202 | 1.6 | 8.0 | 0.00 | 0.00 | 0.00 | 68 | 1018.5 |
| 20260506012009 | 21 | 168 | 1.6 | 9.7 | 0.00 | 0.00 | 0.00 | 69 | 1018.6 |
| 20260506011507 | 20 | 95 | 1.6 | 9.7 | 0.00 | 0.00 | 0.00 | 69 | 1018.7 |
| 20260506011007 | 20 | 70 | 1.6 | 6.4 | 0.00 | 0.00 | 0.00 | 70 | 1018.9 |
| 20260506010505 | 20 | 149 | 1.6 | 11.3 | 0.00 | 0.00 | 0.00 | 70 | 1018.9 |
| 20260506010004 | 20 | 44 | 3.2 | 11.3 | 0.00 | 0.00 | 0.00 | 70 | 1019.0 |
| 20260506005502 | 20 | 111 | 3.2 | 9.7 | 0.00 | 0.00 | 0.00 | 69 | 1019.0 |
| 20260506005002 | 20 | 151 | 1.6 | 6.4 | 0.00 | 0.00 | 0.00 | 71 | 1019.2 |
| 20260506004501 | 20 | 100 | 1.6 | 8.0 | 0.00 | 0.00 | 0.00 | 70 | 1019.2 |
| 20260506004001 | 20 | 78 | 3.2 | 8.0 | 0.00 | 0.00 | 0.00 | 70 | 1019.2 |
| 20260506003600 | 20 | 120 | 1.6 | 6.4 | 0.00 | 0.00 | 0.00 | 68 | 1019.2 |
| 20260506003059 | 20 | 153 | 1.6 | 4.8 | 0.00 | 0.00 | 0.00 | 68 | 1019.2 |
| 20260506002558 | 20 | 152 | 1.6 | 4.8 | 0.00 | 0.00 | 0.00 | 69 | 1019.3 |
| 20260506002056 | 20 | 175 | 1.6 | 6.4 | 0.00 | 0.00 | 0.00 | 70 | 1019.3 |
| 20260506001606 | 20 | 109 | 1.6 | 6.4 | 0.00 | 0.00 | 0.00 | 68 | 1019.4 |
| 20260506001055 | 19 | 209 | 1.6 | 6.4 | 0.00 | 0.00 | 0.00 | 68 | 1019.5 |
| 20260506000555 | 19 | 217 | 1.6 | 6.4 | 0.00 | 0.00 | 0.00 | 68 | 1019.5 |
| 20260506000118 | 19 | 153 | 0.0 | 4.8 | 0.00 | 0.00 | 0.00 | 68 | 1019.5 |
| 20260505235550 | 19 | 107 | 0.0 | 6.4 | 0.00 | 0.00 | 0.00 | 69 | 1019.5 |
| 20260505235049 | 18 | 165 | 1.6 | 6.4 | 0.00 | 0.00 | 0.00 | 69 | 1019.5 |
| 20260505234548 | 18 | 146 | 1.6 | 8.0 | 0.00 | 0.00 | 0.00 | 70 | 1019.6 |
| 20260505234048 | 18 | 209 | 3.2 | 8.0 | 0.00 | 0.00 | 0.00 | 71 | 1019.5 |
| 20260505233544 | 18 | 135 | 3.2 | 9.7 | 0.00 | 0.00 | 0.00 | 71 | 1019.4 |
| 20260505233050 | 18 | 163 | 1.6 | 9.7 | 0.00 | 0.00 | 0.00 | 73 | 1019.5 |
| 20260505232545 | 17 | 134 | 1.6 | 9.7 | 0.00 | 0.00 | 0.00 | 72 | 1019.5 |
| 20260505232042 | 17 | 211 | 3.2 | 6.4 | 0.00 | 0.00 | 0.00 | 72 | 1019.6 |
| 20260505231550 | 17 | 146 | 3.2 | 6.4 | 0.00 | 0.00 | 0.00 | 72 | 1019.6 |
| 20260505231040 | 17 | 209 | 1.6 | 6.4 | 0.00 | 0.00 | 0.00 | 72 | 1019.6 |
| 20260505230539 | 17 | 158 | 3.2 | 6.4 | 0.00 | 0.00 | 0.00 | 73 | 1019.7 |
| 20260505230045 | 17 | 159 | 3.2 | 6.4 | 0.00 | 0.00 | 0.00 | 73 | 1019.7 |
| 20260505225537 | 17 | 132 | 1.6 | 6.4 | 0.00 | 0.00 | 0.00 | 74 | 1019.6 |
| 20260505225036 | 17 | 148 | 0.0 | 6.4 | 0.00 | 0.00 | 0.00 | 75 | 1019.6 |
| 20260505224544 | 16 | 153 | 1.6 | 4.8 | 0.00 | 0.00 | 0.00 | 75 | 1019.7 |
| 20260505224034 | 16 | 166 | 1.6 | 8.0 | 0.00 | 0.00 | 0.00 | 77 | 1019.6 |
| 20260505223532 | 16 | 176 | 1.6 | 8.0 | 0.00 | 0.00 | 0.00 | 78 | 1019.6 |
| 20260505223037 | 16 | 146 | 0.0 | 3.2 | 0.00 | 0.00 | 0.00 | 79 | 1019.7 |
| 20260505222530 | 15 | 203 | 0.0 | 3.2 | 0.00 | 0.00 | 0.00 | 80 | 1019.6 |
| 20260505222029 | 15 | 204 | 0.0 | 1.6 | 0.00 | 0.00 | 0.00 | 81 | 1019.7 |
| 20260505221527 | 15 | 204 | 0.0 | 1.6 | 0.00 | 0.00 | 0.00 | 80 | 1019.7 |
| 20260505221027 | 15 | 204 | 0.0 | 1.6 | 0.00 | 0.00 | 0.00 | 80 | 1019.7 |
| 20260505220525 | 15 | 204 | 0.0 | 4.8 | 0.00 | 0.00 | 0.00 | 81 | 1019.6 |
| 20260505220026 | 14 | 204 | 0.0 | 4.8 | 0.00 | 0.00 | 0.00 | 81 | 1019.6 |
| 20260505215528 | 14 | 209 | 0.0 | 3.2 | 0.00 | 0.00 | 0.00 | 81 | 1019.6 |
| 20260505215025 | 14 | 209 | 0.0 | 3.2 | 0.00 | 0.00 | 0.00 | 81 | 1019.6 |
| 20260505214525 | 14 | 209 | 0.0 | 3.2 | 0.00 | 0.00 | 0.00 | 81 | 1019.6 |
| 20260505214026 | 13 | 209 | 0.0 | 3.2 | 0.00 | 0.00 | 0.00 | 81 | 1019.5 |
| 20260505213524 | 13 | 208 | 0.0 | 1.6 | 0.00 | 0.00 | 0.00 | 81 | 1019.5 |
| 20260505213027 | 13 | 208 | 0.0 | 3.2 | 0.00 | 0.00 | 0.00 | 81 | 1019.4 |
| 20260505212524 | 13 | 208 | 0.0 | 3.2 | 0.00 | 0.00 | 0.00 | 81 | 1019.5 |
| 20260505212024 | 13 | 208 | 0.0 | 3.2 | 0.00 | 0.00 | 0.00 | 81 | 1019.5 |
| 20260505211530 | 13 | 208 | 0.0 | 1.6 | 0.00 | 0.00 | 0.00 | 82 | 1019.4 |
| 20260505211024 | 13 | 209 | 0.0 | 3.2 | 0.00 | 0.00 | 0.00 | 83 | 1019.5 |
| 20260505210523 | 13 | 209 | 0.0 | 3.2 | 0.00 | 0.00 | 0.00 | 83 | 1019.4 |
| 20260505210023 | 13 | 209 | 0.0 | 1.6 | 0.00 | 0.00 | 0.00 | 82 | 1019.5 |
| 20260505205526 | 13 | 208 | 0.0 | 1.6 | 0.00 | 0.00 | 0.00 | 82 | 1019.5 |
| 20260505205027 | 13 | 209 | 0.0 | 3.2 | 0.00 | 0.00 | 0.00 | 82 | 1019.3 |
| 20260505204522 | 13 | 209 | 0.0 | 3.2 | 0.00 | 0.00 | 0.00 | 82 | 1019.3 |
| 20260505204026 | 13 | 209 | 0.0 | 0.0 | 0.00 | 0.00 | 0.00 | 82 | 1019.3 |
| 20260505203521 | 13 | 209 | 0.0 | 0.0 | 0.00 | 0.00 | 0.00 | 82 | 1019.2 |
| 20260505203021 | 13 | 209 | 0.0 | 3.2 | 0.00 | 0.00 | 0.00 | 82 | 1019.2 |
| 20260505202521 | 13 | 209 | 1.6 | 3.2 | 0.00 | 0.00 | 0.00 | 81 | 1019.2 |
| 20260505202024 | 13 | 209 | 0.0 | 1.6 | 0.00 | 0.00 | 0.00 | 81 | 1019.2 |
| 20260505201521 | 13 | 209 | 0.0 | 1.6 | 0.00 | 0.00 | 0.00 | 81 | 1019.2 |
| 20260505201021 | 13 | 209 | 0.0 | 3.2 | 0.00 | 0.00 | 0.00 | 80 | 1019.2 |
| 20260505200521 | 13 | 209 | 0.0 | 3.2 | 0.00 | 0.00 | 0.00 | 80 | 1019.1 |
| 20260505200020 | 13 | 202 | 0.0 | 3.2 | 0.00 | 0.00 | 0.00 | 80 | 1019.1 |
| 20260505195520 | 13 | 186 | 0.0 | 3.2 | 0.00 | 0.03 | 0.00 | 80 | 1019.2 |
| 20260505195020 | 13 | 201 | 0.0 | 1.6 | 0.00 | 0.03 | 0.00 | 80 | 1019.1 |
| 20260505194520 | 13 | 201 | 0.0 | 1.6 | 0.00 | 0.03 | 0.00 | 80 | 1019.1 |
| 20260505194021 | 13 | 201 | 0.0 | 3.2 | 0.00 | 0.03 | 0.00 | 80 | 1019.1 |
| 20260505193520 | 13 | 202 | 0.0 | 3.2 | 0.00 | 0.03 | 0.00 | 80 | 1019.2 |
| 20260505193018 | 13 | 209 | 0.0 | 1.6 | 0.00 | 0.03 | 0.00 | 81 | 1019.1 |
| 20260505192519 | 13 | 209 | 0.0 | 4.8 | 0.00 | 0.03 | 0.00 | 81 | 1019.1 |
| 20260505192018 | 13 | 207 | 0.0 | 3.2 | 0.00 | 0.03 | 0.00 | 82 | 1019.1 |
| 20260505191519 | 13 | 208 | 0.0 | 1.6 | 0.00 | 0.03 | 0.00 | 83 | 1019.1 |
| 20260505191018 | 13 | 208 | 0.0 | 1.6 | 0.00 | 0.03 | 0.00 | 83 | 1019.1 |
| 20260505190517 | 13 | 208 | 0.0 | 3.2 | 0.00 | 0.03 | 0.00 | 84 | 1019.0 |
| 20260505190017 | 13 | 208 | 0.0 | 1.6 | 0.00 | 0.03 | 0.00 | 84 | 1019.0 |
| 20260505185517 | 13 | 209 | 0.0 | 1.6 | 0.00 | 0.03 | 0.00 | 84 | 1019.0 |
| 20260505185017 | 13 | 209 | 0.0 | 1.6 | 0.00 | 0.03 | 0.00 | 85 | 1019.0 |
| 20260505184518 | 13 | 200 | 0.0 | 1.6 | 0.00 | 0.03 | 0.00 | 84 | 1019.0 |
| 20260505184016 | 13 | 211 | 0.0 | 3.2 | 0.00 | 0.03 | 0.00 | 84 | 1019.0 |
| 20260505183518 | 13 | 211 | 0.0 | 3.2 | 0.00 | 0.03 | 0.00 | 83 | 1019.0 |
| 20260505183016 | 13 | 198 | 0.0 | 3.2 | 0.00 | 0.03 | 0.00 | 83 | 1019.0 |
| 20260505182516 | 13 | 198 | 0.0 | 3.2 | 0.00 | 0.03 | 0.00 | 83 | 1019.0 |
| 20260505182018 | 13 | 196 | 0.0 | 3.2 | 0.00 | 0.03 | 0.00 | 83 | 1018.9 |
| 20260505181515 | 13 | 202 | 0.0 | 3.2 | 0.00 | 0.03 | 0.00 | 83 | 1018.9 |
| 20260505181015 | 13 | 163 | 0.0 | 1.6 | 0.00 | 0.03 | 0.00 | 83 | 1018.9 |
| 20260505180513 | 13 | 162 | 0.0 | 3.2 | 0.00 | 0.03 | 0.00 | 83 | 1018.8 |
| 20260505180014 | 13 | 162 | 0.0 | 3.2 | 0.00 | 0.03 | 0.00 | 84 | 1018.8 |
| 20260505175513 | 13 | 185 | 0.0 | 4.8 | 0.00 | 0.03 | 0.00 | 84 | 1018.8 |
| 20260505175013 | 13 | 176 | 0.0 | 3.2 | 0.00 | 0.03 | 0.00 | 85 | 1018.8 |
| 20260505174518 | 13 | 171 | 0.0 | 3.2 | 0.00 | 0.03 | 0.00 | 85 | 1018.8 |
| 20260505174011 | 13 | 171 | 0.0 | 3.2 | 0.00 | 0.03 | 0.00 | 85 | 1018.9 |
| 20260505173510 | 13 | 171 | 0.0 | 3.2 | 0.00 | 0.03 | 0.00 | 86 | 1018.9 |
| 20260505173010 | 13 | 148 | 0.0 | 4.8 | 0.00 | 0.03 | 0.00 | 86 | 1019.0 |
| 20260505172512 | 13 | 137 | 0.0 | 8.0 | 0.00 | 0.03 | 0.00 | 87 | 1018.9 |
| 20260505172009 | 13 | 141 | 1.6 | 8.0 | 0.00 | 0.03 | 0.00 | 87 | 1019.0 |
| 20260505171516 | 13 | 165 | 1.6 | 4.8 | 0.00 | 0.03 | 0.00 | 87 | 1019.0 |
| 20260505171009 | 13 | 165 | 0.0 | 3.2 | 0.00 | 0.03 | 0.00 | 87 | 1019.1 |
| 20260505170508 | 13 | 167 | 1.6 | 4.8 | 0.00 | 0.03 | 0.00 | 87 | 1019.0 |
| 20260505170006 | 13 | 153 | 1.6 | 4.8 | 0.00 | 0.03 | 0.00 | 87 | 1019.0 |
| 20260505165507 | 13 | 223 | 0.0 | 3.2 | 0.00 | 0.08 | 0.00 | 86 | 1019.0 |
| 20260505165005 | 13 | 244 | 0.0 | 3.2 | 0.00 | 0.08 | 0.00 | 85 | 1019.1 |
| 20260505164505 | 13 | 252 | 0.0 | 3.2 | 0.00 | 0.08 | 0.00 | 85 | 1019.0 |
| 20260505164004 | 13 | 252 | 0.0 | 0.0 | 0.00 | 0.08 | 0.00 | 85 | 1019.1 |
| 20260505163502 | 14 | 252 | 0.0 | 0.0 | 0.00 | 0.08 | 0.00 | 84 | 1019.2 |
| 20260505163009 | 14 | 252 | 0.0 | 1.6 | 0.00 | 0.08 | 0.00 | 84 | 1019.2 |
| 20260505162502 | 13 | 252 | 0.0 | 3.2 | 0.00 | 0.08 | 0.00 | 84 | 1019.2 |
| 20260505162003 | 13 | 252 | 1.6 | 3.2 | 0.00 | 0.08 | 0.00 | 85 | 1019.2 |
| 20260505161502 | 14 | 252 | 0.0 | 3.2 | 0.00 | 0.08 | 0.00 | 85 | 1019.2 |
| 20260505161002 | 14 | 252 | 0.0 | 1.6 | 0.00 | 0.08 | 0.00 | 84 | 1019.3 |
| 20260505160501 | 14 | 252 | 0.0 | 1.6 | 0.00 | 0.08 | 0.00 | 84 | 1019.4 |
| 20260505153048 | 14 | 252 | 0.0 | 3.2 | 0.00 | 0.25 | 0.00 | 82 | 1019.5 |
| 20260505152548 | 14 | 208 | 0.0 | 3.2 | 0.00 | 0.25 | 0.00 | 82 | 1019.5 |
| 20260505152046 | 14 | 208 | 0.0 | 3.2 | 0.00 | 0.25 | 0.00 | 82 | 1019.6 |
| 20260505151547 | 14 | 208 | 0.0 | 3.2 | 0.00 | 0.25 | 0.00 | 83 | 1019.6 |
| 20260505151048 | 14 | 208 | 1.6 | 3.2 | 0.00 | 0.25 | 0.00 | 83 | 1019.6 |
| 20260505150545 | 14 | 208 | 0.0 | 3.2 | 0.00 | 0.25 | 0.00 | 83 | 1019.7 |
| 20260505140539 | 14 | 144 | 0.0 | 1.6 | 0.00 | 0.28 | 0.00 | 82 | 1019.9 |
| 20260505125035 | 15 | 125 | 0.0 | 3.2 | 0.00 | 0.30 | 0.28 | 83 | 1019.9 |
| 20260505124535 | 15 | 125 | 0.0 | 1.6 | 0.00 | 0.30 | 0.28 | 83 | 1020.0 |
| 20260505124037 | 15 | 125 | 0.0 | 3.2 | 0.00 | 0.30 | 0.28 | 82 | 1020.0 |
| 20260505123536 | 15 | 125 | 0.0 | 3.2 | 0.00 | 0.30 | 0.28 | 81 | 1019.9 |
| 20260505123046 | 15 | 125 | 0.0 | 3.2 | 0.00 | 0.30 | 0.28 | 81 | 1019.9 |
| 20260505122534 | 15 | 125 | 0.0 | 3.2 | 0.00 | 0.30 | 0.28 | 81 | 1019.9 |
| 20260505122034 | 15 | 5 | 0.0 | 0.0 | 0.00 | 0.30 | 0.28 | 82 | 1020.0 |
| 20260505121535 | 15 | 5 | 0.0 | 0.0 | 0.00 | 0.30 | 0.28 | 83 | 1020.0 |
| 20260505121035 | 15 | 5 | 0.0 | 0.0 | 0.00 | 0.30 | 0.28 | 84 | 1020.1 |
| 20260505120532 | 15 | 5 | 0.0 | 0.0 | 0.00 | 0.30 | 0.28 | 85 | 1020.2 |
| 20260505120044 | 15 | 5 | 0.0 | 0.0 | 0.00 | 0.30 | 0.28 | 85 | 1020.2 |
| 20260505115532 | 15 | 5 | 0.0 | 0.0 | 0.00 | 0.30 | 0.28 | 85 | 1020.2 |
| 20260505115032 | 15 | 5 | 0.0 | 0.0 | 0.00 | 0.30 | 0.28 | 85 | 1020.2 |
| 20260505114532 | 15 | 5 | 0.0 | 0.0 | 0.00 | 0.30 | 0.28 | 84 | 1020.1 |
| 20260505114032 | 15 | 5 | 0.0 | 0.0 | 0.00 | 0.30 | 0.28 | 82 | 1020.1 |
| 20260505113531 | 15 | 5 | 0.0 | 0.0 | 0.00 | 0.30 | 0.28 | 81 | 1020.0 |
| 20260505113032 | 15 | 5 | 0.0 | 0.0 | 0.00 | 0.30 | 0.28 | 79 | 1020.0 |
| 20260505112530 | 15 | 5 | 0.0 | 0.0 | 0.00 | 0.30 | 0.28 | 77 | 1020.0 |
| 20260505112030 | 15 | 5 | 0.0 | 0.0 | 0.00 | 0.30 | 0.28 | 77 | 1019.9 |
| 20260505111535 | 16 | 5 | 0.0 | 0.0 | 0.00 | 0.30 | 0.28 | 77 | 1019.9 |
| 20260505111033 | 16 | 5 | 0.0 | 0.0 | 0.00 | 0.30 | 0.28 | 79 | 1019.8 |
| 20260505110529 | 16 | 5 | 0.0 | 0.0 | 0.00 | 0.30 | 0.28 | 80 | 1019.9 |
| 20260505102029 | 16 | 5 | 0.0 | 0.0 | 0.00 | 0.38 | 0.28 | 74 | 1019.7 |
| 20260505101525 | 16 | 5 | 0.0 | 0.0 | 0.00 | 0.38 | 0.28 | 72 | 1019.6 |
| 20260505101025 | 17 | 5 | 0.0 | 1.6 | 0.00 | 0.38 | 0.28 | 71 | 1019.4 |
| 20260505100524 | 17 | 5 | 0.0 | 3.2 | 0.00 | 0.38 | 0.28 | 70 | 1019.5 |
| 20260505100024 | 17 | 5 | 1.6 | 3.2 | 0.00 | 0.38 | 0.28 | 69 | 1019.4 |
| 20260505095525 | 17 | 5 | 1.6 | 3.2 | 0.00 | 0.38 | 0.28 | 69 | 1019.4 |
| 20260505095023 | 17 | 5 | 0.0 | 0.0 | 0.00 | 0.38 | 0.28 | 69 | 1019.4 |
| 20260505094523 | 17 | 5 | 0.0 | 1.6 | 0.00 | 0.38 | 0.28 | 68 | 1019.3 |
| 20260505094023 | 17 | 5 | 0.0 | 3.2 | 0.00 | 0.38 | 0.28 | 66 | 1019.3 |
| 20260505093522 | 17 | 5 | 1.6 | 3.2 | 0.00 | 0.38 | 0.28 | 67 | 1019.2 |
| 20260505093023 | 17 | 5 | 1.6 | 4.8 | 0.00 | 0.38 | 0.28 | 67 | 1019.2 |
| 20260505092525 | 17 | 5 | 1.6 | 4.8 | 0.00 | 0.38 | 0.28 | 67 | 1019.2 |
| 20260505092022 | 17 | 5 | 1.6 | 4.8 | 0.00 | 0.38 | 0.28 | 67 | 1019.2 |
| 20260505091522 | 17 | 5 | 0.0 | 0.0 | 0.00 | 0.38 | 0.28 | 68 | 1019.1 |
| 20260505091021 | 17 | 5 | 0.0 | 0.0 | 0.00 | 0.38 | 0.28 | 68 | 1019.2 |
| 20260505090520 | 17 | 5 | 0.0 | 0.0 | 0.00 | 0.38 | 0.28 | 68 | 1019.1 |
| 20260505090021 | 17 | 5 | 0.0 | 3.2 | 0.00 | 0.38 | 0.28 | 68 | 1019.0 |
| 20260505085519 | 17 | 5 | 0.0 | 4.8 | 0.00 | 0.38 | 0.28 | 67 | 1019.0 |
| 20260505085019 | 17 | 5 | 1.6 | 4.8 | 0.00 | 0.38 | 0.28 | 67 | 1018.9 |
| 20260505084518 | 17 | 5 | 1.6 | 4.8 | 0.00 | 0.38 | 0.28 | 68 | 1018.8 |
| 20260505084019 | 17 | 5 | 3.2 | 4.8 | 0.00 | 0.38 | 0.28 | 68 | 1018.7 |
| 20260505083522 | 17 | 9 | 1.6 | 4.8 | 0.00 | 0.38 | 0.28 | 68 | 1018.7 |
| 20260505083019 | 17 | 9 | 1.6 | 4.8 | 0.00 | 0.38 | 0.28 | 67 | 1018.6 |
| 20260505082522 | 17 | 9 | 1.6 | 3.2 | 0.00 | 0.38 | 0.28 | 68 | 1018.5 |
| 20260505082018 | 17 | 9 | 1.6 | 4.8 | 0.00 | 0.38 | 0.28 | 69 | 1018.3 |
| 20260505081522 | 17 | 13 | 1.6 | 4.8 | 0.00 | 0.38 | 0.28 | 69 | 1018.2 |
| 20260505081021 | 17 | 30 | 1.6 | 3.2 | 0.00 | 0.38 | 0.28 | 69 | 1018.1 |
| 20260505080520 | 17 | 30 | 1.6 | 3.2 | 0.00 | 0.38 | 0.28 | 70 | 1018.0 |
| 20260505080016 | 17 | 30 | 0.0 | 1.6 | 0.00 | 0.38 | 0.28 | 70 | 1018.0 |
| 20260505075517 | 17 | 30 | 0.0 | 1.6 | 0.00 | 0.38 | 0.28 | 69 | 1017.8 |
| 20260505075016 | 17 | 30 | 0.0 | 0.0 | 0.00 | 0.38 | 0.28 | 69 | 1017.9 |
| 20260505074516 | 17 | 30 | 0.0 | 1.6 | 0.00 | 0.38 | 0.28 | 68 | 1017.9 |
| 20260505074016 | 17 | 30 | 0.0 | 1.6 | 0.00 | 0.38 | 0.28 | 67 | 1017.8 |
| 20260505073516 | 18 | 30 | 0.0 | 3.2 | 0.00 | 0.38 | 0.28 | 67 | 1017.5 |
| 20260505073017 | 18 | 30 | 0.0 | 3.2 | 0.00 | 0.38 | 0.28 | 66 | 1017.5 |
| 20260505072516 | 18 | 30 | 0.0 | 3.2 | 0.00 | 0.38 | 0.28 | 65 | 1017.6 |
| 20260505072015 | 18 | 30 | 0.0 | 0.0 | 0.00 | 0.38 | 0.28 | 64 | 1017.5 |
| 20260505071516 | 19 | 30 | 0.0 | 1.6 | 0.00 | 0.38 | 0.28 | 64 | 1017.4 |
| 20260505071016 | 19 | 30 | 0.0 | 1.6 | 0.00 | 0.38 | 0.28 | 63 | 1017.3 |
| 20260505070517 | 20 | 30 | 0.0 | 0.0 | 0.00 | 0.38 | 0.28 | 63 | 1017.1 |
| 20260505070015 | 20 | 30 | 0.0 | 1.6 | 0.00 | 0.38 | 0.28 | 63 | 1017.2 |
| 20260505065515 | 20 | 30 | 0.0 | 3.2 | 0.00 | 0.38 | 0.28 | 63 | 1017.1 |
| 20260505065014 | 20 | 30 | 0.0 | 3.2 | 0.00 | 0.38 | 0.28 | 63 | 1017.0 |
| 20260505064515 | 19 | 109 | 0.0 | 0.0 | 0.00 | 0.38 | 0.28 | 64 | 1016.9 |
| 20260505064014 | 19 | 109 | 0.0 | 1.6 | 0.00 | 0.38 | 0.28 | 64 | 1016.9 |
| 20260505063514 | 19 | 109 | 0.0 | 1.6 | 0.00 | 0.38 | 0.28 | 64 | 1016.8 |
| 20260505063014 | 19 | 109 | 0.0 | 3.2 | 0.00 | 0.38 | 0.28 | 64 | 1016.9 |
| 20260505062514 | 18 | 109 | 0.0 | 3.2 | 0.00 | 0.38 | 0.28 | 63 | 1016.8 |
| 20260505062013 | 19 | 109 | 0.0 | 3.2 | 0.00 | 0.38 | 0.28 | 62 | 1016.6 |
| 20260505061514 | 19 | 109 | 0.0 | 6.4 | 0.00 | 0.38 | 0.28 | 61 | 1016.8 |
| 20260505061013 | 19 | 109 | 1.6 | 6.4 | 0.00 | 0.38 | 0.28 | 61 | 1016.9 |
| 20260505060513 | 20 | 112 | 1.6 | 4.8 | 0.00 | 0.38 | 0.28 | 59 | 1016.9 |
| 20260505060017 | 20 | 97 | 1.6 | 9.7 | 0.00 | 0.38 | 0.28 | 58 | 1016.8 |